Regional Weather Roundup
Issued by NWS

Home | Current Version | Previous Version | Text Only | Print | Product List | Glossary On
Versions: 1 2 3 4 5 6 7 8 9 10 11 12 13 14 15 16 17 18 19 20 21 22 23 24 25 26 27 28 29 30 31 32 33 34 35 36 37 38 39 40 41 42 43 44 45 46 47 48 49 50
000
ASUS43 KMKX 032300
RWRWI

WISCONSIN REGIONAL WEATHER ROUNDUP
NATIONAL WEATHER SERVICE MILWAUKEE/SULLIVAN WI
600 PM CDT SUN MAY 03 2015

NOTE: "FAIR" INDICATES FEW OR NO CLOUDS BELOW 12,000 FEET WITH NO
SIGNIFICANT WEATHER AND/OR OBSTRUCTIONS TO VISIBILITY.

WIZ001-002-006>008-014>016-023>028-040000-
NORTHWEST WISCONSIN

CITY           SKY/WX    TMP DP  RH WIND       PRES   REMARKS
SUPERIOR ARPT  LGT RAIN  61  45  56 NW16G28   29.86R
ASHLAND        CLOUDY    73  34  23 NW21G29   29.82R
HAYWARD        CLOUDY    65  55  70 N8        29.84R
SIREN          MOSUNNY   73  33  23 N16G26    29.83R
CUMBERLAND     CLOUDY    72  46  40 NW14      29.78S
RICE LAKE      PTSUNNY   77  46  32 NW5       29.78S
CHETEK         PTSUNNY   77  55  46 CALM      29.76S
LADYSMITH      PTSUNNY   77  51  39 W5        29.78S
EAU CLAIRE     MOSUNNY   79  50  36 CALM      29.74S
MENOMONIE      SUNNY     78  50  37 CALM      29.75S
NEW RICHMOND   PTSUNNY   77  49  36 NW12      29.74F
OSCEOLA        HVY RAIN  68  56  64 W13G18    29.81R
$$

WIZ003>005-009-010-017-018-040000-
NORTH CENTRAL WISCONSIN

CITY           SKY/WX    TMP DP  RH WIND       PRES   REMARKS
MANITOWISH WTR CLOUDY    72  49  43 NW5       29.78S THUNDER
ARBOR VITAE    PTSUNNY   77  48  35 NW5       29.77F
WOODRUFF       PTSUNNY   77  48  35 NW5       29.77F
RHINELANDER    MOSUNNY   78  46  32 SW12      29.77F
EAGLE RIVER    PTSUNNY   76  43  31 W9        29.77F
LAND O LAKES   PTSUNNY   76  43  30 W7        29.79R
PHILLIPS       MOSUNNY   75  51  42 W6        29.77S
TOMAHAWK       MOSUNNY   78  46  33 CALM      29.78F
MEDFORD        SUNNY     77  51  40 S8        29.78S
MERRILL        MOSUNNY   79  52  39 SW10      29.78S
$$

WIZ029-030-035-036-043>047-040000-
CENTRAL WISCONSIN

CITY           SKY/WX    TMP DP  RH WIND       PRES   REMARKS
WAUSAU         SUNNY     78  52  40 SW14      29.76F
MOSINEE        MOSUNNY   75  52  43 SW12      29.79F
MARSHFIELD     PTSUNNY   80  52  37 SW8       29.77F HX  80
STEVENS POINT  PTSUNNY   78  51  39 SW8       29.79F
WAUPACA        MOSUNNY   80  50  35 SW16G22   29.80S
WAUTOMA        NOT AVBL
WISC RAPIDS    MOSUNNY   79  51  37 S13       29.79F
CAMP DOUGLAS   NOT AVBL
$$

WIZ011>013-019>022-031-037>040-048>050-040000-
NORTHEAST WISCONSIN

CITY           SKY/WX    TMP DP  RH WIND       PRES   REMARKS
ANTIGO         MOSUNNY   77  52  41 SW14      29.80R
SHAWANO        SUNNY     81  50  33 SW7G16    29.79S HX  80
OCONTO         MOSUNNY   79  55  43 SW12G22   29.78F
STURGEON BAY   MOSUNNY   72  48  43 S16G22    29.83F
GREEN BAY      MOSUNNY   77  55  46 S15G28    29.81S
MANITOWOC      NOT AVBL
APPLETON       MOSUNNY   75  48  38 SW23G30   29.83S
CLINTONVILLE   PTSUNNY   79  50  36 SW14      29.79S
OSHKOSH        SUNNY     76  55  48 S21G29    29.83S
$$

WIZ032>034-041-042-053>061-040000-
SOUTHWEST WISCONSIN

CITY           SKY/WX    TMP DP  RH WIND       PRES   REMARKS
LA CROSSE      MOSUNNY   84  53  34 S16       29.73F HX  82
SPARTA         SUNNY     81  49  33 S12       29.78F HX  80
VIROQUA        MOSUNNY   78  55  44 S14       29.81F
BOSCOBEL       SUNNY     78  58  49 S10       29.81F
PRAIRIE DU CHI MOSUNNY   78  54  42 S10       29.80F
PLATTEVILLE    MOSUNNY   73  58  59 S9        29.86F
$$

WIZ056-057-062-063-064-067-068-040000-
SOUTH CENTRAL WISCONSIN

CITY           SKY/WX    TMP DP  RH WIND       PRES   REMARKS
REEDSBURG      SUNNY     75  56  51 S13G21    29.83F
BARABOO/DELLS  NOT AVBL
LONE ROCK      NOT AVBL
MINERAL POINT  SUNNY     73  55  53 SE10      29.87S
MADISON        PTSUNNY   71  55  56 S18       29.87F
MIDDLETON      MOSUNNY   74  52  45 S16G22    29.87F
WATERTOWN      PTSUNNY   71  56  59 S13G22    29.89S
MONROE         MOSUNNY   66  59  77 SE14      29.89F
JANESVILLE     SUNNY     68  59  73 S13G18    29.90F
$$

WIZ051-052-058>065-066-070>072-040000-
SOUTHEAST WISCONSIN

CITY           SKY/WX    TMP DP  RH WIND       PRES   REMARKS
MILWAUKEE      CLOUDY    69  54  58 SW15G23   29.92R
WAUKESHA       PTSUNNY   66  54  63 SW12G23   29.93R
MILWAUKEE/TIMM PTSUNNY   70  52  52 SW14      29.92R
RACINE         LGT RAIN  69  54  58 SW14G22   29.94R
BURLINGTON     RAIN      60  57  92 SW21      29.92F
KENOSHA        LGT RAIN  64  59  83 W9        29.94R
FOND DU LAC    MOSUNNY   75  54  47 S23G29    29.85S
SHEBOYGAN      PTSUNNY   75  54  47 SW23G30   29.87R
WEST BEND      PTSUNNY   72  52  49 SW21G28   29.89R
JUNEAU         MOSUNNY   71  54  54 S20G26    29.90S
$$

LSZ147-162-040000-
LAKE SUPERIOR

STATION/POSITION TIME  TEMP    WIND        PRES    WAVE
                       AIR SEA DIR/SP/G            HT/PER
                 (UTC) (F)     (DEG/KT/KT) (MB)    (FT/S)
W MID LAKE BUOY  2150   45 36  310/  6/ 10 1008.3R   1
DEVILS ISLAND    2200   62     300/ 21/ 22 1008.8R
PORT WING        2200          350/  8/ 17 1009.8
SAXON HARBOR     2200   69        CALM     1008.1R
$$

LMZ867-665-643>646-040000-
LAKE MICHIGAN

STATION/POSITION TIME  TEMP    WIND        PRES    WAVE
                       AIR SEA DIR/SP/G            HT/PER
                 (UTC) (F)     (DEG/KT/KT) (MB)    (FT/S)
CHAMBERS ISLAND  2200   71     140/  6/ 12 1009.1F
NORTHPORT PIER   2200   60     160/  9/ 21 1009.5F
KEWAUNEE LAKESHO 2200   50     170/ 13/ 14 1009.8F
SHEBOYGAN LAKESH 2200   53     180/ 15/ 18 1011.5R
PORT WASHINGTON  2240          230/  7/ 16 1012.5R
ATWATER BUOY     2200          220/ 12/ 14 1013.8R
MILWAUKEE LAKESH 2200   70     220/ 10/ 12   N/A
KENOSHA   LAKESH 2200   68     210/  4/  6 1012.5S
$$

TC  - TEMPERATURE IN CELSIUS
VSB - VISIBILITY IN STATUTE MILES
WCI - WIND CHILL INDEX
HX  - HEAT INDEX



USA.gov is the U.S. government's official web portal to all federal, state and local government web resources and services.